Location: Unspecified
(0.0000°N, 0.0000°E)
Time: 09:31:37
(UTC+00:00)

Explorer 11/Cluster Stage 4 - Pass Details

Date: 16 December 2018
Orbit: 467 x 1260 km, 28.8° (Epoch: 22 March)

Event Time Altitude Azimuth Distance (km) Brightness Sun altitude
Rises 19:51:59 0° 231° (SW) 4,187 11.5 -26.5°
Reaches altitude 10° 19:55:06 10° 226° (SW) 3,178 10.6 -27.2°
Maximum altitude 20:02:52 53° 151° (SSE) 1,347 7.6 -28.9°
Enters shadow 20:03:40 51° 130° (SE) 1,362 7.5 -29.1°
